Flag for Netherlands Weather past 2 weeks in Tilburg, Netherlands

Now
59 °F

Mostly cloudy.


Feels Like: 57 °F
Forecast: 53 / 64 °F
Wind: 12 mph from Southwest

Location: Gilze-Rijen

Current Time: Jul 28, 2015 at 4:25:06 AM

Latest Report: Jul 28, 2015 at 3:25 AM


Visibility: N/A

Pressure: 29.62 "Hg

Humidity: 77%

Dew point: 52 °F

Location of TilburgLocation

Historic Weather in Tilburg — Graph

°F

Tilburg temperature yesterday

Maximum temperature yesterday: 68 °F (at 6:25 PM)
Minimum temperature yesterday: 57 °F (at 12:04 AM)
Average temperature yesterday: 62 °F

Past Weeks' High & Low Weather Summary

 TemperatureHumidityPressure
High81 °F (Jul 17, 1:25 PM)100% (Jul 13, 8:55 AM)30.12 "Hg (Jul 13, 8:55 AM)
Low46 °F (Jul 26, 4:55 AM)38% (Jul 23, 1:25 PM)29.45 "Hg (Jul 25, 5:25 AM)
Average65 °F80%29.90 "Hg
* Reported Jul 13 2:25 AM — Jul 28 2:55 AM, Tilburg, Weather by CustomWeather, © 2015

Note: Actual official high and low records may vary slightly from our data, if they occured in-between our weather recording intervals... More about our weather records

Advertising

Tilburg weather history for previous 24 hours

 ConditionsComfort  
Time TempWeatherWind HumidityBarometerVisibility
2:55 AM
Tue, Jul 28
59 °FMostly cloudy.12 mph77%29.62 "HgN/A
2:25 AM59 °FMostly cloudy.12 mph77%29.62 "HgN/A
1:55 AM59 °FMostly cloudy.13 mph77%29.62 "HgN/A
1:25 AM61 °FMostly cloudy.12 mph72%29.62 "HgN/A
12:56 AM61 °FMostly cloudy.13 mph72%29.62 "HgN/A
12:55 AM61 °FMostly cloudy.12 mph72%29.62 "HgN/A
12:25 AM61 °FMostly cloudy.13 mph72%29.62 "HgN/A
11:55 PM
Mon, Jul 27
61 °FMostly cloudy.13 mph72%29.62 "HgN/A
11:25 PM61 °FPassing clouds.10 mph72%29.62 "HgN/A
10:55 PM61 °FPassing clouds.15 mph72%29.62 "HgN/A
10:25 PM63 °FCloudy.14 mph64%29.62 "HgN/A
9:55 PM63 °FBroken clouds.12 mph68%29.62 "HgN/A
9:25 PM64 °FScattered clouds.13 mph64%29.59 "HgN/A
8:55 PM64 °FBroken clouds.13 mph64%29.59 "HgN/A
8:25 PM66 °FPassing clouds.18 mph60%29.59 "HgN/A
7:55 PM68 °FPartly sunny.15 mph60%29.56 "HgN/A
7:25 PM68 °FBroken clouds.16 mph60%29.56 "HgN/A
6:55 PM66 °FBroken clouds.12 mph68%29.56 "HgN/A
6:25 PM68 °FCloudy.14 mph64%29.56 "HgN/A
5:55 PM66 °FMostly cloudy.10 mph68%29.56 "HgN/A
5:25 PM66 °FBroken clouds.13 mph68%29.56 "HgN/A
4:55 PM66 °FBroken clouds.14 mph73%29.56 "HgN/A
4:25 PM66 °FBroken clouds.14 mph73%29.56 "HgN/A
3:55 PM64 °FScattered clouds.14 mph83%29.56 "HgN/A
3:25 PM66 °FCloudy.16 mph73%29.53 "HgN/A
2:55 PM64 °FCloudy.13 mph78%29.53 "HgN/A
2:25 PM64 °FLight rain. Mostly cloudy.13 mph78%29.53 "HgN/A
1:55 PM64 °FBroken clouds.13 mph83%29.53 "HgN/A
1:25 PM63 °FDrizzle. Partly sunny.12 mph88%29.53 "HgN/A
1:01 PM63 °FMostly cloudy.16 mph88%29.50 "HgN/A
12:55 PM63 °FDrizzle. Cloudy.14 mph88%29.50 "HgN/A
12:25 PM63 °FCloudy.14 mph88%29.50 "HgN/A
11:55 AM61 °FMostly cloudy.14 mph94%29.50 "HgN/A
11:25 AM61 °FBroken clouds.16 mph94%29.50 "HgN/A
10:55 AM59 °FDrizzle. Broken clouds.13 mph100%29.50 "Hg3 mi
10:25 AM59 °FRain showers. Broken clouds.13 mph94%29.50 "Hg4 mi
9:55 AM61 °FSprinkles. Broken clouds.13 mph88%29.47 "HgN/A
9:25 AM61 °FDrizzle. More clouds than sun.13 mph88%29.47 "HgN/A
8:55 AM61 °FMostly cloudy.12 mph88%29.47 "HgN/A
8:25 AM61 °FDrizzle. Cloudy.13 mph83%29.47 "HgN/A
7:55 AM61 °FMostly cloudy.12 mph88%29.47 "HgN/A
7:25 AM59 °FMore clouds than sun.12 mph94%29.47 "HgN/A
6:55 AM59 °FBroken clouds.12 mph88%29.47 "HgN/A
6:25 AM59 °FOvercast.12 mph88%29.47 "HgN/A
5:55 AM57 °FPassing clouds.10 mph94%29.47 "HgN/A
4:55 AM59 °FPartly cloudy.12 mph94%29.47 "HgN/A
4:25 AM59 °FPartly cloudy.14 mph94%29.47 "HgN/A
Weather by CustomWeather, © 2015

See weather overviewHow to use our weather pages